• In Österreich
  • Länderverzeichnis
  • Für 7 Tage
  • Wassertemperatur
  • Satellitenkarten
  • Wetterkarte
  • News
  • Widgets
  • user-avatar
    Anmelden

    Stündliche Wetter Soma Bey

    Heute, 21 Januar, Sonntag

    Zeit Temperatur Niederschläge Wind Luftdruck Luftfeuchtigkeit
    00:00 +14°C° 0 mm 2 m/S 754 mmHg 66%
    01:00 +13°C° 0 mm 2 m/S 754 mmHg 67%
    02:00 +13°C° 0 mm 2 m/S 753 mmHg 70%
    03:00 +13°C° 0 mm 2 m/S 753 mmHg 71%
    04:00 +13°C° 0 mm 2 m/S 753 mmHg 72%
    05:00 +12°C° 0 mm 2 m/S 753 mmHg 74%
    06:00 +14°C° 0 mm 1 m/S 753 mmHg 68%
    07:00 +15°C° 0 mm 1 m/S 753 mmHg 62%
    08:00 +18°C° 0 mm 1 m/S 753 mmHg 56%
    09:00 +19°C° 0 mm 1 m/S 753 mmHg 51%
    10:00 +21°C° 0 mm 1 m/S 752 mmHg 46%
    11:00 +21°C° 0 mm 2 m/S 752 mmHg 42%
    12:00 +23°C° 0 mm 2 m/S 752 mmHg 40%
    13:00 +24°C° 0 mm 2 m/S 751 mmHg 38%
    14:00 +24°C° 0 mm 2 m/S 751 mmHg 36%
    15:00 +24°C° 0 mm 2 m/S 751 mmHg 38%
    16:00 +23°C° 0 mm 2 m/S 750 mmHg 41%
    17:00 +21°C° 0 mm 2 m/S 750 mmHg 44%
    18:00 +21°C° 0 mm 1 m/S 750 mmHg 49%
    19:00 +20°C° 0 mm 1 m/S 751 mmHg 55%
    20:00 +19°C° 0 mm 1 m/S 751 mmHg 60%
    21:00 +18°C° 0 mm 1 m/S 751 mmHg 60%
    22:00 +18°C° 0 mm 1 m/S 751 mmHg 61%
    23:00 +18°C° 0 mm 1 m/S 750 mmHg 61%

    Morgen, 22 Januar, Montag

    Zeit Temperatur Niederschläge Wind Luftdruck Luftfeuchtigkeit
    00:00 +16°C° 0 mm 1 m/S 750 mmHg 59%
    01:00 +16°C° 0 mm 1 m/S 750 mmHg 56%
    02:00 +16°C° 0 mm 1 m/S 750 mmHg 54%
    03:00 +16°C° 0 mm 1 m/S 750 mmHg 50%
    04:00 +16°C° 0 mm 1 m/S 750 mmHg 46%
    05:00 +16°C° 0 mm 2 m/S 749 mmHg 42%
    06:00 +17°C° 0 mm 2 m/S 750 mmHg 37%
    07:00 +18°C° 0 mm 2 m/S 750 mmHg 32%
    08:00 +19°C° 0 mm 2 m/S 750 mmHg 28%
    09:00 +21°C° 0 mm 2 m/S 750 mmHg 24%
    10:00 +24°C° 0 mm 3 m/S 750 mmHg 20%
    11:00 +25°C° 0 mm 3 m/S 750 mmHg 15%
    12:00 +26°C° 0 mm 4 m/S 750 mmHg 15%
    13:00 +26°C° 0 mm 4 m/S 749 mmHg 14%
    14:00 +27°C° 0 mm 4 m/S 749 mmHg 14%
    15:00 +26°C° 0 mm 4 m/S 749 mmHg 15%
    16:00 +25°C° 0 mm 4 m/S 748 mmHg 16%
    17:00 +23°C° 0 mm 4 m/S 748 mmHg 17%
    18:00 +22°C° 0 mm 4 m/S 749 mmHg 18%
    19:00 +21°C° 0 mm 4 m/S 749 mmHg 19%
    20:00 +20°C° 0 mm 5 m/S 750 mmHg 20%
    21:00 +19°C° 0 mm 5 m/S 750 mmHg 25%
    22:00 +17°C° 0 mm 5 m/S 750 mmHg 29%
    23:00 +17°C° 0 mm 5 m/S 750 mmHg 34%

    übermorgen, 23 Januar, Dienstag

    Zeit Temperatur Niederschläge Wind Luftdruck Luftfeuchtigkeit
    00:00 +16°C° 0 mm 5 m/S 750 mmHg 39%
    01:00 +15°C° 0 mm 5 m/S 750 mmHg 44%
    02:00 +15°C° 0 mm 5 m/S 750 mmHg 49%
    03:00 +14°C° 0 mm 5 m/S 750 mmHg 52%
    04:00 +14°C° 0 mm 5 m/S 750 mmHg 55%
    05:00 +14°C° 0 mm 4 m/S 750 mmHg 57%
    06:00 +14°C° 0 mm 4 m/S 751 mmHg 57%
    07:00 +15°C° 0 mm 4 m/S 751 mmHg 56%
    08:00 +15°C° 0 mm 4 m/S 752 mmHg 56%
    09:00 +18°C° 0 mm 4 m/S 752 mmHg 50%
    10:00 +19°C° 0 mm 4 m/S 752 mmHg 45%
    11:00 +21°C° 0 mm 5 m/S 752 mmHg 39%
    12:00 +21°C° 0 mm 5 m/S 751 mmHg 37%
    13:00 +22°C° 0 mm 4 m/S 751 mmHg 35%
    14:00 +22°C° 0 mm 4 m/S 750 mmHg 32%
    15:00 +22°C° 0 mm 4 m/S 750 mmHg 34%
    16:00 +21°C° 0 mm 4 m/S 750 mmHg 36%
    17:00 +21°C° 0 mm 4 m/S 750 mmHg 38%
    18:00 +20°C° 0 mm 4 m/S 750 mmHg 43%
    19:00 +19°C° 0 mm 3 m/S 751 mmHg 47%
    20:00 +18°C° 0 mm 3 m/S 751 mmHg 51%
    21:00 +17°C° 0 mm 3 m/S 751 mmHg 53%
    22:00 +16°C° 0 mm 3 m/S 751 mmHg 54%
    23:00 +16°C° 0 mm 2 m/S 752 mmHg 56%

    24 Januar, Mittwoch

    Zeit Temperatur Niederschläge Wind Luftdruck Luftfeuchtigkeit
    00:00 +15°C° 0 mm 2 m/S 751 mmHg 56%
    01:00 +14°C° 0 mm 3 m/S 751 mmHg 56%
    02:00 +13°C° 0 mm 3 m/S 751 mmHg 57%
    03:00 +13°C° 0 mm 3 m/S 751 mmHg 56%
    04:00 +12°C° 0 mm 3 m/S 751 mmHg 56%
    05:00 +12°C° 0 mm 3 m/S 751 mmHg 56%
    06:00 +13°C° 0 mm 3 m/S 751 mmHg 51%
    07:00 +14°C° 0 mm 3 m/S 751 mmHg 47%
    08:00 +16°C° 0 mm 3 m/S 752 mmHg 43%
    09:00 +18°C° 0 mm 2 m/S 752 mmHg 41%
    10:00 +19°C° 0 mm 2 m/S 752 mmHg 38%
    11:00 +20°C° 0 mm 2 m/S 751 mmHg 36%
    12:00 +21°C° 0 mm 2 m/S 751 mmHg 34%
    13:00 +21°C° 0 mm 3 m/S 750 mmHg 32%
    14:00 +22°C° 0 mm 3 m/S 750 mmHg 29%
    15:00 +22°C° 0 mm 3 m/S 750 mmHg 31%
    16:00 +21°C° 0 mm 3 m/S 750 mmHg 33%
    17:00 +21°C° 0 mm 3 m/S 750 mmHg 35%
    18:00 +20°C° 0 mm 3 m/S 750 mmHg 39%
    19:00 +19°C° 0 mm 2 m/S 750 mmHg 42%
    20:00 +17°C° 0 mm 2 m/S 751 mmHg 46%
    21:00 +17°C° 0 mm 2 m/S 751 mmHg 47%
    22:00 +16°C° 0 mm 2 m/S 750 mmHg 48%
    23:00 +16°C° 0 mm 2 m/S 750 mmHg 50%

    25 Januar, Donnerstag

    Zeit Temperatur Niederschläge Wind Luftdruck Luftfeuchtigkeit
    00:00 +15°C° 0 mm 2 m/S 750 mmHg 49%
    01:00 +15°C° 0 mm 2 m/S 750 mmHg 49%
    02:00 +15°C° 0 mm 2 m/S 750 mmHg 49%
    03:00 +14°C° 0 mm 2 m/S 750 mmHg 49%
    04:00 +14°C° 0 mm 2 m/S 750 mmHg 49%
    05:00 +13°C° 0 mm 3 m/S 750 mmHg 50%
    06:00 +13°C° 0 mm 3 m/S 750 mmHg 47%
    07:00 +14°C° 0 mm 3 m/S 750 mmHg 45%
    08:00 +16°C° 0 mm 3 m/S 751 mmHg 43%
    09:00 +17°C° 0 mm 4 m/S 751 mmHg 40%
    10:00 +19°C° 0 mm 4 m/S 751 mmHg 37%
    11:00 +21°C° 0 mm 5 m/S 751 mmHg 35%
    12:00 +21°C° 0 mm 5 m/S 750 mmHg 34%
    13:00 +21°C° 0 mm 6 m/S 750 mmHg 34%
    14:00 +22°C° 0 mm 6 m/S 749 mmHg 34%
    15:00 +21°C° 0 mm 6 m/S 750 mmHg 36%
    16:00 +20°C° 0 mm 7 m/S 750 mmHg 37%
    17:00 +18°C° 0 mm 7 m/S 750 mmHg 39%
    18:00 +17°C° 0 mm 7 m/S 751 mmHg 41%
    19:00 +16°C° 0 mm 7 m/S 751 mmHg 43%
    20:00 +15°C° 0 mm 7 m/S 752 mmHg 44%
    21:00 +14°C° 0 mm 7 m/S 752 mmHg 45%
    22:00 +12°C° 0 mm 7 m/S 752 mmHg 47%
    23:00 +12°C° 0 mm 7 m/S 752 mmHg 48%

    26 Januar, Freitag

    Zeit Temperatur Niederschläge Wind Luftdruck Luftfeuchtigkeit
    00:00 +11°C° 0 mm 6 m/S 752 mmHg 49%
    01:00 +10°C° 0 mm 5 m/S 752 mmHg 49%
    02:00 +9°C° 0 mm 5 m/S 752 mmHg 50%
    03:00 +9°C° 0 mm 5 m/S 752 mmHg 51%
    04:00 +10°C° 0 mm 4 m/S 752 mmHg 52%
    05:00 +8°C° 0 mm 4 m/S 752 mmHg 52%
    06:00 +10°C° 0 mm 4 m/S 753 mmHg 52%
    07:00 +10°C° 0 mm 4 m/S 753 mmHg 52%
    08:00 +11°C° 0 mm 4 m/S 754 mmHg 51%
    09:00 +13°C° 0 mm 4 m/S 754 mmHg 46%
    10:00 +15°C° 0 mm 4 m/S 754 mmHg 41%
    11:00 +17°C° 0 mm 4 m/S 754 mmHg 37%
    12:00 +17°C° 0 mm 5 m/S 753 mmHg 34%
    13:00 +19°C° 0 mm 5 m/S 753 mmHg 31%
    14:00 +20°C° 0 mm 5 m/S 753 mmHg 29%
    15:00 +19°C° 0 mm 5 m/S 753 mmHg 30%
    16:00 +19°C° 0 mm 5 m/S 753 mmHg 31%
    17:00 +17°C° 0 mm 5 m/S 753 mmHg 33%
    18:00 +16°C° 0 mm 5 m/S 753 mmHg 38%
    19:00 +15°C° 0 mm 5 m/S 754 mmHg 42%
    20:00 +14°C° 0 mm 5 m/S 754 mmHg 47%
    21:00 +13°C° 0 mm 5 m/S 755 mmHg 49%
    22:00 +12°C° 0 mm 5 m/S 755 mmHg 51%
    23:00 +12°C° 0 mm 4 m/S 755 mmHg 53%
    Mehr zeigen